Location: Albany
(35.0170°S, 117.8920°E)
Time: 18:37:10
(UTC+08:00)

SR - Pass Details

Date: 22 January 2021
Orbit: 573 x 882 km, 66.7° (Epoch: 25 February)

Event Time Altitude Azimuth Distance (km) Brightness Sun altitude
Rises 01:19:58 0° 190° (S) 2,886 ? -33.4°
Reaches altitude 10° 01:23:05 10° 167° (SSE) 1,940 ? -33.2°
Maximum altitude 01:25:44 16° 129° (SE) 1,574 ? -33.1°
Enters shadow 01:26:26 15° 117° (ESE) 1,596 ? -33.0°
